TimeCST,TemperatureF,Dew PointF,Humidity,Sea Level PressureIn,VisibilityMPH,Wind Direction,Wind SpeedMPH,Gust SpeedMPH,PrecipitationIn,Events,Conditions,WindDirDegrees,DateUTC
12:53 AM,-13.0,-18.9,75,30.55,8.0,South,6.9,-,N/A,,Clear,180,2013-12-08 06:53:00
1:53 AM,-11.9,-18.9,71,30.52,10.0,South,8.1,-,N/A,,Scattered Clouds,180,2013-12-08 07:53:00
2:53 AM,-11.0,-18.0,71,30.49,10.0,South,5.8,-,N/A,,Clear,180,2013-12-08 08:53:00
3:53 AM,-9.9,-16.1,74,30.47,10.0,SSE,4.6,-,N/A,,Overcast,160,2013-12-08 09:53:00
4:53 AM,-9.0,-16.1,71,30.43,10.0,SE,3.5,-,N/A,,Overcast,140,2013-12-08 10:53:00
5:53 AM,-8.0,-15.0,71,30.41,10.0,SE,3.5,-,N/A,,Overcast,140,2013-12-08 11:53:00
6:53 AM,-8.0,-14.1,75,30.39,8.0,East,3.5,-,N/A,,Overcast,90,2013-12-08 12:53:00
7:53 AM,-7.1,-14.1,72,30.36,9.0,SE,4.6,-,N/A,,Scattered Clouds,130,2013-12-08 13:53:00
8:22 AM,-5.8,-13.0,71,30.25,2.0,ESE,4.6,-,0.00,Snow,Light Snow,120,2013-12-08 14:22:00
8:44 AM,-5.8,-11.2,77,30.24,1.5,SE,5.8,-,0.00,Snow,Light Snow,130,2013-12-08 14:44:00
8:53 AM,-4.0,-11.0,72,30.33,1.8,SE,5.8,-,0.00,Snow,Light Snow,130,2013-12-08 14:53:00
9:00 AM,-4.0,-9.4,78,30.24,2.5,SE,4.6,-,0.00,Snow,Light Snow,140,2013-12-08 15:00:00
9:13 AM,-2.2,-9.4,71,30.24,1.8,SE,4.6,-,0.00,Snow,Light Snow,130,2013-12-08 15:13:00
9:53 AM,-0.9,-7.1,75,30.32,1.2,SSE,6.9,-,0.00,Snow,Light Snow,160,2013-12-08 15:53:00
10:10 AM,-0.4,-5.8,78,30.23,1.0,South,9.2,-,0.00,Snow,Light Snow,170,2013-12-08 16:10:00
10:44 AM,1.4,-5.8,72,30.21,1.2,SSE,11.5,-,0.00,Snow,Light Snow,160,2013-12-08 16:44:00
10:53 AM,1.0,-6.0,72,30.30,1.5,South,10.4,-,0.00,Snow,Light Snow,170,2013-12-08 16:53:00
11:13 AM,1.4,-5.8,72,30.20,2.0,SSE,11.5,-,0.00,Snow,Light Snow,160,2013-12-08 17:13:00
11:18 AM,1.4,-5.8,72,30.20,3.0,South,9.2,-,0.00,Snow,Light Snow,170,2013-12-08 17:18:00
11:48 AM,1.4,-4.0,78,30.18,1.8,South,9.2,-,0.00,Snow,Light Snow,170,2013-12-08 17:48:00
11:53 AM,1.9,-4.0,76,30.27,1.5,South,10.4,-,0.00,Snow,Light Snow,170,2013-12-08 17:53:00
12:32 PM,3.2,-2.2,78,30.14,2.5,SSE,9.2,-,0.01,,Haze,160,2013-12-08 18:32:00
12:42 PM,3.2,-2.2,78,30.14,4.0,South,8.1,-,0.01,,Haze,170,2013-12-08 18:42:00
12:53 PM,3.9,-2.9,73,30.22,5.0,South,9.2,-,0.01,,Haze,180,2013-12-08 18:53:00
1:24 PM,3.2,-2.2,78,30.12,2.5,South,9.2,-,0.00,Snow,Light Snow,170,2013-12-08 19:24:00
1:45 PM,5.0,-2.2,72,30.12,1.5,South,8.1,-,0.00,Snow,Light Snow,170,2013-12-08 19:45:00
1:53 PM,5.0,-0.9,76,30.20,1.2,South,8.1,-,0.00,Snow,Light Snow,170,2013-12-08 19:53:00
2:53 PM,6.1,-0.9,73,30.17,1.8,South,8.1,-,0.01,Snow,Light Snow,170,2013-12-08 20:53:00
3:10 PM,6.8,-0.4,72,30.08,2.0,South,6.9,-,0.00,Snow,Light Snow,170,2013-12-08 21:10:00
3:29 PM,6.8,-0.4,72,30.08,2.0,South,10.4,-,0.00,,Haze,180,2013-12-08 21:29:00
3:32 PM,6.8,-0.4,72,30.08,1.8,South,11.5,-,0.00,,Haze,180,2013-12-08 21:32:00
3:42 PM,6.8,-0.4,72,30.08,2.0,South,11.5,-,0.00,,Haze,180,2013-12-08 21:42:00
3:50 PM,6.8,-0.4,72,30.07,1.8,South,11.5,-,0.00,,Haze,180,2013-12-08 21:50:00
3:53 PM,6.1,-0.9,73,30.16,1.5,South,9.2,-,0.00,,Haze,180,2013-12-08 21:53:00
4:10 PM,6.8,-0.4,72,30.07,3.0,SSE,8.1,-,N/A,,Haze,160,2013-12-08 22:10:00
4:29 PM,6.8,-0.4,72,30.07,1.8,South,8.1,-,0.00,Snow,Light Snow,170,2013-12-08 22:29:00
4:53 PM,5.0,-0.0,80,30.15,3.0,South,5.8,-,0.00,,Haze,170,2013-12-08 22:53:00
5:53 PM,5.0,-0.9,76,30.14,6.0,South,6.9,-,0.00,,Haze,180,2013-12-08 23:53:00
6:53 PM,3.9,-0.9,80,30.14,7.0,SSW,8.1,-,N/A,,Mostly Cloudy,200,2013-12-09 00:53:00
7:53 PM,1.9,-2.9,80,30.13,5.0,SSW,5.8,-,0.00,Snow,Light Snow,200,2013-12-09 01:53:00
8:53 PM,-0.9,-5.1,83,30.12,6.0,SSW,5.8,-,0.00,,Clear,200,2013-12-09 02:53:00
9:24 PM,-2.2,-5.8,85,30.03,1.8,SSW,6.9,-,N/A,,Mostly Cloudy,210,2013-12-09 03:24:00
9:49 PM,-0.4,-5.8,78,30.03,1.5,WSW,8.1,-,0.00,Snow,Light Snow,240,2013-12-09 03:49:00
9:53 PM,1.0,-4.0,79,30.11,2.0,WSW,9.2,-,0.00,Snow,Light Snow,240,2013-12-09 03:53:00
9:57 PM,1.4,-4.0,78,30.03,4.0,WSW,10.4,-,0.00,Snow,Light Snow,240,2013-12-09 03:57:00
10:53 PM,-2.9,-8.0,79,30.10,10.0,West,9.2,-,0.00,,Mostly Cloudy,270,2013-12-09 04:53:00
11:53 PM,-5.1,-11.0,76,30.11,10.0,West,8.1,-,N/A,,Partly Cloudy,260,2013-12-09 05:53:00